Location: Gro�sch�nbrunn
(49.5760°N, 11.8868°E)
Time: 08:36:40
(UTC+00:00)

N. Korean satellite - Pass Details

Date: 25 November 2020
Orbit: 453 x 502 km, 97.2° (Epoch: 16 January)

Event Time Altitude Azimuth Distance (km) Brightness Sun altitude
Rises 03:39:47 0° 30° (NNE) 2,539 10.6 -28.5°
Reaches altitude 10° 03:42:42 10° 58° (ENE) 1,665 10.0 -28.0°
Maximum altitude 03:44:37 14° 90° (E) 1,446 9.8 -27.7°
Drops below altitude 10° 03:46:32 10° 122° (ESE) 1,672 10.0 -27.4°
Sets 03:49:28 0° 149° (SSE) 2,557 10.6 -26.9°
